Lid_Strength_Index
-1 0 -0 2 7 8 12 12 7 8 7 4 4 5 6 5 7 11 1 0 0 0 -1 -1 -1 -1 -1 -1 -1 -1 -1 -1 -1 -1 -1 -1 -1 -1 -1 -2 -2 -1 -2 -2 -2 -2 -2 -2 -2
0 0 1 4 9 11 12 9 10 7 5 4 4 4 5 6 3 3 2 0 0 -0 -1 -1 -1 -1 -1 -1 -1 -1 -1 -1 -1 -1 -1 -1 -1 -1 -1 -1 -1 -2 -2 -2 -2 -2 -2 -2 -1
1 1 4 6 8 10 13 9 8 5 4 5 5 4 4 5 3 2 2 0 0 -0 -1 -1 -1 -1 -1 -1 -1 -1 -1 -1 -1 -1 -1 -1 -1 -1 -1 -1 -2 -2 -2 -1 -1 -1 -1 -1 -1
1 2 3 7 8 7 8 8 5 5 4 4 4 6 3 2 2 1 0 -0 0 -0 -1 -1 -1 -1 -1 -1 -1 -1 -1 -1 -1 -1 -1 -1 -1 -1 -1 -1 -1 -1 -1 -1 -1 -1 -1 -1 -1
1 3 7 8 8 6 5 5 4 5 5 5 4 6 5 2 1 0 0 0 0 -0 -0 -1 -1 -1 -1 -1 -1 -1 -1 -1 -2 -1 -1 -1 -1 -2 -1 -1 -1 -1 -1 -1 -1 -1 -1 -1 -1
4 4 8 9 8 6 5 4 4 5 4 4 5 5 5 2 1 1 0 0 -0 0 -0 -1 -1 -1 -1 -1 -1 -1 -1 -1 -1 -1 -1 -2 -2 -2 -1 -1 -1 -1 -1 -1 -1 -1 -1 -1 -1
5 6 8 8 8 6 5 4 5 5 5 5 4 7 5 3 1 1 0 0 0 -0 -0 -1 -1 -1 -1 -1 -1 -1 -1 -1 -1 -1 -2 -2 -2 -2 -2 -2 -2 -1 -1 -1 -1 -1 -1 -1 -2
3 5 7 7 8 7 5 4 4 4 5 3 3 7 7 3 1 1 0 0 0 0 -0 -0 -1 -1 -1 -1 -1 -1 -1 -1 -1 -1 -1 -2 -2 -2 -2 -2 -2 -2 -1 -1 -1 -1 -1 -2 -2
2 6 8 8 7 7 4 5 3 3 4 3 3 3 3 2 1 1 1 1 1 1 0 -0 -0 -0 -1 -1 -1 -1 -1 -1 -1 -1 -2 -1 -1 -1 -1 -2 -2 -2 -1 -1 -1 -1 -2 -3 -2
4 7 8 6 5 5 5 5 4 4 4 5 5 3 2 2 2 2 2 2 2 1 1 0 -0 -0 -1 -1 -1 -1 -1 -1 -1 -1 -1 -1 -1 -2 -1 -1 -2 -2 -1 -1 -2 -2 -2 -2 -0
4 6 6 5 4 4 5 5 4 5 6 5 5 5 3 2 2 2 2 2 2 1 1 0 -0 -0 -0 -0 -0 -1 -1 -1 -1 -1 -1 -1 -1 -1 -1 -1 -1 -1 -1 -1 -1 -1 -1 -1 -1
6 5 5 5 4 4 5 4 5 4 5 3 4 3 3 3 3 2 2 2 1 1 1 0 -0 -0 -1 -0 -0 -0 -0 -1 -1 -1 -2 -2 -1 -1 -1 -1 -1 -1 -1 -0 -0 -1 -1 -1 -1
5 5 4 4 4 4 4 5 5 4 3 3 2 3 3 3 2 2 1 1 1 1 1 0 -0 -0 -1 -1 -0 -1 -0 -0 -1 -1 -2 -2 -1 -0 -1 -1 -1 -1 -0 -1 -0 -0 1 1 1
4 5 5 4 4 4 5 5 4 4 3 3 3 3 3 3 2 2 2 2 1 1 1 0 0 -0 -0 -0 -1 -0 -1 -1 -1 -2 -1 -2 -2 -1 -1 -0 -0 -1 -2 -1 0 0 1 1 1
4 6 5 5 4 5 4 6 5 3 3 3 3 3 3 3 2 2 2 1 1 1 0 0 0 -0 -0 -0 -1 -1 -1 -1 -1 -1 -2 -2 -2 -1 -1 -0 -0 -1 -1 -0 -0 1 1 1 -0
6 6 8 5 5 5 5 8 5 4 4 4 3 3 3 3 2 2 1 1 1 1 1 0 0 0 0 -0 -0 -0 -1 -1 -1 -1 -2 -1 -2 -2 -1 -0 -0 -1 -0 -0 1 1 1 1 1
6 9 8 7 5 5 6 7 5 4 4 4 4 3 3 3 3 2 1 1 1 1 1 1 0 0 0 -0 -0 -0 -0 -0 -1 -2 -1 -1 -1 -1 -1 -0 -0 -0 -0 0 1 1 0 1 1
9 8 8 8 6 5 6 6 5 4 4 4 4 3 3 3 3 2 2 1 1 1 1 1 1 0 0 0 -0 -0 -0 -0 -1 -1 -1 -1 -1 -1 -1 -1 -1 -0 0 0 0 1 0 1 1
7 8 8 7 5 6 7 6 6 4 5 5 4 4 3 3 2 2 2 1 1 1 1 1 1 1 1 1 1 1 1 1 0 -0 -1 -1 -2 -1 -1 -0 -0 -0 0 0 0 1 1 1 1
7 8 8 6 6 6 6 7 5 5 5 4 4 4 3 3 2 3 2 2 2 2 1 1 1 1 1 1 1 1 1 0 0 -0 -0 -1 -1 -1 -1 -1 -0 -0 0 0 0 1 2 1 1
7 8 8 8 6 6 7 8 7 6 5 4 4 3 3 3 3 3 3 2 2 2 2 1 1 1 1 -0 0 0 0 0 1 1 0 -0 -1 -1 -0 -1 -0 -0 -0 1 0 0 1 2 2
8 6 7 7 8 10 7 11 8 6 6 5 4 4 3 3 3 3 3 3 2 2 1 1 1 0 1 0 1 1 2 2 1 1 0 0 -1 -0 -1 -1 -1 -0 -0 0 0 0 1 1 3
7 6 6 7 8 8 8 10 8 6 7 6 5 4 3 3 3 4 3 3 2 2 1 1 1 1 0 0 0 1 1 1 1 1 1 0 -0 -1 -1 -0 0 -1 -0 -0 0 0 1 1 2
5 6 7 7 8 11 9 9 9 8 7 6 5 4 4 3 3 3 2 2 2 2 1 1 1 1 1 1 0 1 1 1 2 1 2 1 1 -0 -0 0 1 -1 -0 -0 0 -0 0 1 1
6 8 11 12 12 12 8 10 8 6 5 5 5 4 4 3 3 3 3 3 2 2 2 2 2 2 1 1 1 1 1 1 1 1 1 1 1 1 1 1 -0 -0 -0 -0 -0 -0 1 1 2
7 8 11 15 13 12 8 11 8 5 4 4 4 4 3 3 3 3 3 3 3 2 2 2 2 2 2 1 1 1 1 1 1 1 1 0 0 1 0 1 1 1 -0 -0 0 0 0 1 1
7 9 7 10 9 11 10 9 6 5 5 5 4 4 4 3 2 3 3 3 2 2 2 2 2 2 2 1 1 1 1 1 1 0 -0 0 0 2 1 2 2 2 0 1 -0 0 1 0 0
7 6 9 9 14 15 11 10 10 8 7 5 5 4 3 3 3 3 3 3 2 2 2 2 2 2 2 1 1 1 1 1 0 0 0 0 0 1 2 2 2 2 1 -0 0 0 1 1 1
8 8 8 8 9 13 14 11 7 7 6 6 5 4 4 3 4 3 3 3 2 2 2 2 2 2 2 1 1 1 1 0 0 0 0 1 1 1 2 2 2 1 0 0 0 0 1 1 1
6 7 7 10 11 10 11 11 5 5 5 4 5 4 3 3 3 3 3 3 3 3 2 2 2 2 2 1 1 1 1 1 1 1 0 0 1 1 2 2 2 1 0 0 1 1 1 1 1